RYR7963 EGSS-LFSL

Flight info

Callsign RYR7963
Flight time 1h 19m
Altitude 33000
Route NUGBO M183 SILVA Q41 COWLY UT71 VAPID UN859 SOPIL DCT BALAN DCT LMG DCT MAKOX
Aircraft B738/M-SADFGIJ1LRWYZ/SB1

Departure

Time 2026-05-04 08:12
Airport London Stansted Airport (EGSS)

Arrival

Time 2026-05-04 09:31
Airport Brive Souillac airport (LFSL)
Time Latitude Longitude Altitude Speed Heading
2026-05-04 07:43 51.89469 0.26507 358 ft 0 kts 222°
2026-05-04 07:59 51.89474 0.26515 351 ft 3 kts 222°
2026-05-04 08:00 51.89488 0.26536 351 ft 3 kts 218°
2026-05-04 08:00 51.89508 0.26549 358 ft 3 kts 202°
2026-05-04 08:00 51.89527 0.26565 361 ft 3 kts 276°
2026-05-04 08:02 51.89507 0.26610 359 ft 0 kts 313°
2026-05-04 08:03 51.89520 0.26588 359 ft 5 kts 313°
2026-05-04 08:03 51.89559 0.26521 356 ft 11 kts 313°
2026-05-04 08:03 51.89623 0.26408 356 ft 16 kts 313°
2026-05-04 08:03 51.89702 0.26269 351 ft 17 kts 312°
2026-05-04 08:04 51.89747 0.26159 351 ft 11 kts 270°
2026-05-04 08:04 51.89696 0.26060 351 ft 13 kts 223°
2026-05-04 08:04 51.89620 0.25945 355 ft 17 kts 223°
2026-05-04 08:04 51.89524 0.25801 351 ft 20 kts 223°
2026-05-04 08:05 51.89411 0.25631 359 ft 24 kts 223°
2026-05-04 08:05 51.89283 0.25439 355 ft 26 kts 223°
2026-05-04 08:05 51.89142 0.25229 351 ft 27 kts 222°
2026-05-04 08:05 51.89007 0.25024 351 ft 26 kts 222°
2026-05-04 08:06 51.88880 0.24834 355 ft 24 kts 223°
2026-05-04 08:06 51.88761 0.24656 351 ft 23 kts 223°
2026-05-04 08:06 51.88641 0.24477 347 ft 23 kts 223°
2026-05-04 08:06 51.88511 0.24282 348 ft 28 kts 223°
2026-05-04 08:08 51.87824 0.22952 338 ft 16 kts 223°
2026-05-04 08:08 51.87738 0.22823 334 ft 18 kts 222°
2026-05-04 08:10 51.87566 0.22077 322 ft 0 kts 43°
2026-05-04 08:11 51.87979 0.22696 331 ft 103 kts 43°
2026-05-04 08:11 51.88639 0.23682 356 ft 154 kts 41°
2026-05-04 08:12 51.89432 0.24869 1017 ft 155 kts 41°
2026-05-04 08:12 51.90231 0.26061 1824 ft 157 kts 43°
2026-05-04 08:12 51.91059 0.27311 2448 ft 174 kts 42°
2026-05-04 08:12 51.92032 0.28770 2756 ft 203 kts 39°
2026-05-04 08:13 51.93290 0.29859 3272 ft 212 kts 13°
2026-05-04 08:13 51.94812 0.29850 3598 ft 235 kts 345°
2026-05-04 08:13 51.96282 0.28442 3969 ft 257 kts 311°
2026-05-04 08:13 51.97082 0.25840 4717 ft 264 kts 283°
2026-05-04 08:14 51.97395 0.22930 5546 ft 266 kts 278°
2026-05-04 08:14 51.97644 0.19936 6402 ft 269 kts 278°
2026-05-04 08:14 51.97898 0.16909 7193 ft 272 kts 277°
2026-05-04 08:16 51.97426 -0.05906 11161 ft 341 kts 257°
2026-05-04 08:16 51.96928 -0.09697 11795 ft 346 kts 257°
2026-05-04 08:16 51.96427 -0.13540 12503 ft 351 kts 257°
2026-05-04 08:17 51.95921 -0.17433 13243 ft 354 kts 257°
2026-05-04 08:17 51.95408 -0.21362 13970 ft 359 kts 257°
2026-05-04 08:17 51.94888 -0.25341 14650 ft 362 kts 257°
2026-05-04 08:17 51.94364 -0.29331 15435 ft 363 kts 257°
2026-05-04 08:19 51.90536 -0.58100 20209 ft 382 kts 255°
2026-05-04 08:19 51.89474 -0.62016 20800 ft 383 kts 232°
2026-05-04 08:20 51.87519 -0.64914 21455 ft 384 kts 213°
2026-05-04 08:20 51.85099 -0.66777 22085 ft 387 kts 199°
2026-05-04 08:20 51.82422 -0.67521 22638 ft 393 kts 186°
2026-05-04 08:20 51.79680 -0.67789 23202 ft 396 kts 186°
2026-05-04 08:21 51.76916 -0.67991 23693 ft 400 kts 186°
2026-05-04 08:21 51.74161 -0.68178 24153 ft 402 kts 186°
2026-05-04 08:21 51.71368 -0.68375 24669 ft 402 kts 186°
2026-05-04 08:21 51.68569 -0.68587 25188 ft 402 kts 186°
2026-05-04 08:22 51.65772 -0.68812 25673 ft 403 kts 186°
2026-05-04 08:22 51.62964 -0.69048 26135 ft 405 kts 186°
2026-05-04 08:24 51.43354 -0.64588 29314 ft 417 kts 166°
2026-05-04 08:24 51.40601 -0.63189 29962 ft 412 kts 166°
2026-05-04 08:24 51.37886 -0.61820 30528 ft 408 kts 167°
2026-05-04 08:24 51.35168 -0.60461 30807 ft 410 kts 166°
2026-05-04 08:25 51.32425 -0.59099 30991 ft 415 kts 167°
2026-05-04 08:25 51.29670 -0.57734 31381 ft 413 kts 166°
2026-05-04 08:25 51.26930 -0.56377 31806 ft 412 kts 166°
2026-05-04 08:25 51.24188 -0.55022 32089 ft 414 kts 166°
2026-05-04 08:26 51.21428 -0.53660 32361 ft 416 kts 166°
2026-05-04 08:27 51.01941 -0.44080 33017 ft 416 kts 166°
2026-05-04 08:28 50.96400 -0.41374 33022 ft 417 kts 166°
2026-05-04 08:28 50.90866 -0.38679 33022 ft 418 kts 166°
2026-05-04 08:29 50.85306 -0.35977 33031 ft 418 kts 166°
2026-05-04 08:31 50.63108 -0.25249 33017 ft 414 kts 166°
2026-05-04 08:33 50.41229 -0.14781 33003 ft 409 kts 166°
2026-05-04 08:35 50.19496 -0.04478 33007 ft 408 kts 166°
2026-05-04 08:35 50.14063 -0.01915 33009 ft 408 kts 166°
2026-05-04 08:37 49.94899 0.05952 33003 ft 407 kts 168°
2026-05-04 08:38 49.89404 0.08095 33011 ft 407 kts 168°
2026-05-04 08:38 49.83910 0.10248 32999 ft 407 kts 168°
2026-05-04 08:40 49.61926 0.18889 32991 ft 407 kts 168°
2026-05-04 08:41 49.56476 0.21094 33006 ft 408 kts 168°
2026-05-04 08:41 49.50974 0.23309 32979 ft 409 kts 168°
2026-05-04 08:42 49.45480 0.25513 32991 ft 408 kts 168°
2026-05-04 08:42 49.39982 0.27713 33004 ft 409 kts 168°
2026-05-04 08:43 49.34465 0.29917 32982 ft 409 kts 168°
2026-05-04 08:43 49.28958 0.32130 32991 ft 408 kts 167°
2026-05-04 08:44 49.23488 0.34435 32987 ft 407 kts 167°
2026-05-04 08:46 49.01737 0.43588 32988 ft 406 kts 167°
2026-05-04 08:46 48.96317 0.45850 32980 ft 405 kts 167°
2026-05-04 08:47 48.90870 0.48120 32982 ft 405 kts 167°
2026-05-04 08:47 48.85435 0.50381 32984 ft 405 kts 167°
2026-05-04 08:48 48.79996 0.52635 32980 ft 405 kts 167°
2026-05-04 08:48 48.75470 0.54461 32982 ft 404 kts 168°
2026-05-04 08:49 48.69132 0.56925 32980 ft 404 kts 168°
2026-05-04 08:50 48.50929 0.64033 32968 ft 406 kts 167°
2026-05-04 08:51 48.45477 0.66246 32973 ft 405 kts 167°
2026-05-04 08:51 48.40034 0.68471 32966 ft 405 kts 167°
2026-05-04 08:52 48.34593 0.70683 32969 ft 405 kts 167°
2026-05-04 08:52 48.29145 0.72889 32969 ft 405 kts 167°
2026-05-04 08:54 48.07328 0.81502 32970 ft 406 kts 168°
2026-05-04 08:55 48.01855 0.83646 32961 ft 406 kts 168°
2026-05-04 08:55 47.96388 0.85783 32958 ft 405 kts 168°
2026-05-04 09:01 47.39509 1.06465 32967 ft 399 kts 182°
2026-05-04 09:01 47.33956 1.06265 32966 ft 399 kts 182°
2026-05-04 09:02 47.28400 1.06099 32962 ft 400 kts 182°
2026-05-04 09:02 47.22828 1.05962 32962 ft 400 kts 182°
2026-05-04 09:03 47.17254 1.05834 32959 ft 400 kts 182°
2026-05-04 09:03 47.11731 1.05707 32964 ft 399 kts 182°
2026-05-04 09:04 47.06175 1.05580 32962 ft 399 kts 182°
2026-05-04 09:04 47.00628 1.05436 32966 ft 398 kts 183°
2026-05-04 09:05 46.95098 1.05195 32965 ft 397 kts 183°
2026-05-04 09:05 46.89569 1.04941 32758 ft 398 kts 183°
2026-05-04 09:05 46.86821 1.04820 32433 ft 391 kts 183°
2026-05-04 09:06 46.84121 1.04704 32019 ft 385 kts 183°
2026-05-04 09:07 46.66017 1.03937 28950 ft 359 kts 184°
2026-05-04 09:08 46.63538 1.03832 28537 ft 355 kts 184°
2026-05-04 09:08 46.61081 1.03729 28112 ft 351 kts 184°
2026-05-04 09:08 46.58649 1.03627 27680 ft 348 kts 183°
2026-05-04 09:08 46.56241 1.03526 27255 ft 344 kts 183°
2026-05-04 09:09 46.53855 1.03425 26847 ft 341 kts 183°
2026-05-04 09:09 46.51489 1.03325 26440 ft 340 kts 182°
2026-05-04 09:09 46.49127 1.03268 26072 ft 338 kts 182°
2026-05-04 09:09 46.46771 1.03240 25671 ft 341 kts 181°
2026-05-04 09:10 46.44359 1.03219 25278 ft 353 kts 181°
2026-05-04 09:10 46.41876 1.03198 24843 ft 357 kts 181°
2026-05-04 09:10 46.39399 1.03176 24410 ft 354 kts 181°
2026-05-04 09:10 46.36944 1.03153 23985 ft 352 kts 181°
2026-05-04 09:11 46.34527 1.03129 23574 ft 351 kts 181°
2026-05-04 09:11 46.32085 1.03104 23061 ft 351 kts 181°
2026-05-04 09:11 46.29654 1.03078 22603 ft 348 kts 181°
2026-05-04 09:11 46.27243 1.03052 22196 ft 344 kts 181°
2026-05-04 09:12 46.24859 1.03026 21774 ft 341 kts 181°
2026-05-04 09:12 46.22492 1.03000 21363 ft 339 kts 181°
2026-05-04 09:14 46.06402 1.02824 18630 ft 324 kts 181°
2026-05-04 09:14 46.04152 1.02800 18245 ft 323 kts 181°
2026-05-04 09:14 46.01909 1.02775 17810 ft 321 kts 181°
2026-05-04 09:14 45.99677 1.02750 17401 ft 320 kts 181°
2026-05-04 09:15 45.97458 1.02726 17005 ft 318 kts 181°
2026-05-04 09:15 45.95252 1.02702 16622 ft 316 kts 182°
2026-05-04 09:15 45.93060 1.02679 16244 ft 314 kts 181°
2026-05-04 09:15 45.90881 1.02656 15872 ft 312 kts 182°
2026-05-04 09:17 45.74095 1.05819 12839 ft 305 kts 164°
2026-05-04 09:18 45.72072 1.06731 12468 ft 304 kts 165°
2026-05-04 09:18 45.70064 1.07631 12109 ft 301 kts 165°
2026-05-04 09:18 45.68094 1.08509 11758 ft 300 kts 165°
2026-05-04 09:18 45.66102 1.09393 11399 ft 298 kts 165°
2026-05-04 09:19 45.64124 1.10269 11058 ft 296 kts 165°
2026-05-04 09:19 45.62159 1.11137 10727 ft 295 kts 164°
2026-05-04 09:19 45.60197 1.12002 10388 ft 295 kts 165°
2026-05-04 09:19 45.58274 1.12849 10230 ft 289 kts 165°
2026-05-04 09:20 45.56379 1.13684 10079 ft 281 kts 165°
2026-05-04 09:20 45.54538 1.14494 9906 ft 274 kts 165°
2026-05-04 09:20 45.52721 1.15293 9593 ft 272 kts 165°
2026-05-04 09:20 45.50918 1.16084 9295 ft 270 kts 165°
2026-05-04 09:21 45.49125 1.16870 8985 ft 268 kts 165°
2026-05-04 09:21 45.47346 1.17650 8692 ft 267 kts 165°
2026-05-04 09:21 45.45578 1.18425 8407 ft 265 kts 165°
2026-05-04 09:21 45.43817 1.19196 8109 ft 265 kts 165°
2026-05-04 09:22 45.42062 1.19964 7816 ft 264 kts 165°
2026-05-04 09:22 45.40322 1.20726 7663 ft 256 kts 165°
2026-05-04 09:22 45.38641 1.21462 7543 ft 249 kts 165°
2026-05-04 09:22 45.37015 1.22173 7429 ft 241 kts 165°
2026-05-04 09:23 45.35435 1.22862 7335 ft 233 kts 165°
2026-05-04 09:23 45.33926 1.23520 7233 ft 227 kts 165°
2026-05-04 09:23 45.32399 1.24029 7055 ft 225 kts 175°
2026-05-04 09:23 45.30845 1.24225 6853 ft 225 kts 178°
2026-05-04 09:25 45.19996 1.25424 5258 ft 217 kts 176°
2026-05-04 09:25 45.18500 1.25605 5047 ft 215 kts 176°
2026-05-04 09:26 45.17021 1.25784 4862 ft 211 kts 176°
2026-05-04 09:26 45.15576 1.25959 4620 ft 206 kts 176°
2026-05-04 09:26 45.14170 1.26130 4402 ft 199 kts 176°
2026-05-04 09:26 45.12819 1.26293 4182 ft 191 kts 176°
2026-05-04 09:27 45.11540 1.26647 3934 ft 187 kts 154°
2026-05-04 09:27 45.10654 1.27905 3787 ft 182 kts 124°
2026-05-04 09:27 45.10088 1.29494 3586 ft 178 kts 118°
2026-05-04 09:27 45.09586 1.31071 3388 ft 173 kts 118°
2026-05-04 09:28 45.09096 1.32613 3200 ft 173 kts 118°
2026-05-04 09:28 45.08597 1.34180 2974 ft 175 kts 117°
2026-05-04 09:28 45.08100 1.35740 2738 ft 173 kts 118°
2026-05-04 09:28 45.07607 1.37280 2523 ft 171 kts 117°
2026-05-04 09:29 45.07125 1.38781 2325 ft 163 kts 117°
2026-05-04 09:29 45.06677 1.40180 2130 ft 148 kts 118°
2026-05-04 09:29 45.06259 1.41474 1943 ft 143 kts 117°
2026-05-04 09:29 45.05851 1.42733 1728 ft 138 kts 116°
2026-05-04 09:30 45.05450 1.43972 1534 ft 139 kts 116°
2026-05-04 09:30 45.05049 1.45217 1369 ft 140 kts 115°
2026-05-04 09:30 45.04647 1.46466 1173 ft 138 kts 114°
2026-05-04 09:30 45.04257 1.47689 1018 ft 132 kts 115°
2026-05-04 09:31 45.03941 1.48661 1010 ft 71 kts 114°
2026-05-04 09:31 45.03845 1.48964 1009 ft 22 kts 115°
2026-05-04 09:31 45.03814 1.49094 1011 ft 7 kts 91°
2026-05-04 09:31 45.03798 1.49097 1010 ft 3 kts 258°
2026-05-04 09:32 45.03812 1.49058 1010 ft 6 kts 296°
2026-05-04 09:32 45.03834 1.48989 1010 ft 10 kts 294°
2026-05-04 09:34 45.04076 1.48914 1007 ft 0 kts 160°